Statesville, NC

9:40 PM EST on February 07, 2016 (GMT -0500)
Statesville Municipal

Weather History for KSVH - March, 2014

Change the Weather History Date:

Sunday, March 23, 2014

  Actual Average (KHKY) Record (KHKY)
Temperature  
Mean Temperature 46 °F -  
Max Temperature 52 °F 62 °F 80 °F (2007)
Min Temperature 41 °F 36 °F 23 °F (2004)
Degree Days  
Heating Degree Days 19    
Moisture  
Dew Point 39 °F    
Average Humidity 76    
Maximum Humidity 94    
Minimum Humidity 51    
Precipitation  
Precipitation 0.21 in - - ()
Sea Level Pressure  
Sea Level Pressure 30.01 in    
Wind  
Wind Speed 3 mph (NNE)    
Max Wind Speed 14 mph    
Max Gust Speed 17 mph    
Visibility 10 miles    
Events Rain    
Averages and records for this station are not official NWS values.
T = Trace of Precipitation, MM = Missing Value Source: NWS Daily Summary

Daily Weather History Graph

Daily Weather History Graph

Search for Another Location

Airport or City:

Trip Planner

Search our weather history database for the weather conditions in past years. The results will help you decide how hot, cold, wet, or windy it might be!

Date:

Astronomy

Mar. 23, 2014 Rise Set
Actual Time 7:23 AM EDT 7:38 PM EDT
Civil Twilight 6:57 AM EDT 8:03 PM EDT
Nautical Twilight 6:27 AM EDT 8:33 PM EDT
Astronomical Twilight 5:57 AM EDT 9:03 PM EDT
Moon 1:44 AM EDT (3/23) 12:12 PM EDT (3/23)
Length of Visible Light 13h 06m
Length of Day
12h 14m
Waning Gibbous, 55% of the Moon is Illuminated
Mar 23
Waning Gibbous
Mar 23
Last Quarter
Mar 30
New
Apr 7
First Quarter
Apr 15
Full

Hourly Weather History & Observations

Time (EDT) Temp. Windchill Dew Point Humidity Pressure Visibility Wind Dir Wind Speed Gust Speed Precip Events Conditions
12:15 AM 50.2 °F - 39.4 °F 66% 29.97 in 10.0 mi Calm Calm - N/A   Clear
12:35 AM 51.4 °F - 39.0 °F 63% 29.97 in 10.0 mi Calm Calm - N/A   Clear
12:55 AM 49.3 °F - 38.8 °F 67% 29.97 in 10.0 mi Calm Calm - N/A   Clear
1:15 AM 48.9 °F - 39.2 °F 69% 29.97 in 10.0 mi Calm Calm - N/A   Clear
1:35 AM 50.4 °F - 38.7 °F 64% 29.97 in 10.0 mi Calm Calm - N/A   Clear
1:55 AM 48.9 °F - 38.7 °F 68% 29.97 in 10.0 mi Calm Calm - N/A   Clear
2:15 AM 46.9 °F - 38.7 °F 73% 29.96 in 10.0 mi Calm Calm - N/A   Clear
2:35 AM 48.6 °F - 38.7 °F 69% 29.95 in 10.0 mi Calm Calm - N/A   Clear
2:55 AM 46.8 °F - 38.7 °F 73% 29.95 in 10.0 mi Calm Calm - N/A   Clear
3:15 AM 48.9 °F - 39.0 °F 69% 29.94 in 10.0 mi Calm Calm - N/A   Clear
3:35 AM 46.0 °F 44.8 °F 38.3 °F 74% 29.93 in 10.0 mi NNW 3.5 mph - N/A   Clear
3:55 AM 46.6 °F - 38.3 °F 73% 29.94 in 10.0 mi Calm Calm - N/A   Clear
4:15 AM 44.6 °F - 38.3 °F 79% 29.94 in 10.0 mi Calm Calm - N/A   Clear
4:35 AM 47.3 °F - 38.7 °F 72% 29.94 in 10.0 mi Calm Calm - N/A   Clear
4:55 AM 44.6 °F - 38.7 °F 80% 29.93 in 10.0 mi Calm Calm - N/A   Clear
5:15 AM 45.9 °F - 38.7 °F 76% 29.94 in 10.0 mi Calm Calm - N/A   Clear
5:35 AM 43.9 °F - 38.5 °F 81% 29.94 in 10.0 mi Calm Calm - N/A   Clear
5:55 AM 47.5 °F - 39.2 °F 73% 29.95 in 10.0 mi Calm Calm - N/A   Clear
6:15 AM 48.0 °F - 39.2 °F 72% 29.95 in 10.0 mi NNE 4.6 mph - N/A   Clear
6:35 AM 47.3 °F - 38.3 °F 71% 29.95 in 10.0 mi NE 4.6 mph - N/A   Clear
6:55 AM 48.4 °F - 37.4 °F 66% 29.95 in 10.0 mi NNE 4.6 mph - N/A   Clear
7:15 AM 47.5 °F - 37.0 °F 67% 29.94 in 10.0 mi ENE 8.1 mph - N/A   Clear
7:35 AM 48.4 °F - 37.4 °F 66% 29.95 in 10.0 mi NE 5.8 mph - N/A   Clear
7:55 AM 49.3 °F - 36.1 °F 61% 29.97 in 10.0 mi North 4.6 mph - N/A   Scattered Clouds
8:15 AM 49.3 °F - 36.7 °F 62% 29.97 in 10.0 mi NNE 4.6 mph - N/A   Scattered Clouds
8:35 AM 50.0 °F - 36.0 °F 59% 29.97 in 10.0 mi NE 5.8 mph - N/A   Overcast
8:55 AM 50.7 °F - 34.5 °F 54% 29.97 in 10.0 mi NE 6.9 mph - N/A   Mostly Cloudy
9:15 AM 51.3 °F - 33.4 °F 51% 29.97 in 10.0 mi North 10.4 mph - N/A   Mostly Cloudy
9:35 AM 50.2 °F - 35.2 °F 57% 30.02 in 10.0 mi NNW 10.4 mph - N/A Rain Light Rain
9:55 AM 48.6 °F - 37.0 °F 64% 30.04 in 10.0 mi North 8.1 mph - N/A Rain Light Rain
10:15 AM 47.3 °F - 38.5 °F 71% 30.05 in 7.0 mi North 4.6 mph - 0.02 in Rain Rain
10:35 AM 45.5 °F 42.5 °F 40.8 °F 84% 30.04 in 5.0 mi NNE 5.8 mph - 0.08 in Rain Heavy Rain
10:55 AM 45.3 °F 41.6 °F 40.3 °F 83% 30.04 in 10.0 mi North 6.9 mph - 0.11 in Rain Light Rain
11:15 AM 44.6 °F 40.7 °F 40.8 °F 87% 30.05 in 10.0 mi NNE 6.9 mph - 0.01 in Rain Light Rain
11:35 AM 44.4 °F 40.5 °F 41.4 °F 89% 30.06 in 10.0 mi North 6.9 mph - 0.03 in Rain Rain
11:55 AM 44.1 °F 40.1 °F 41.9 °F 92% 30.04 in 7.0 mi NE 6.9 mph - 0.06 in Rain Light Rain
12:15 PM 44.2 °F 39.7 °F 42.1 °F 92% 30.03 in 7.0 mi NE 8.1 mph - 0.02 in Rain Light Rain
12:35 PM 44.4 °F 39.5 °F 42.4 °F 93% 30.02 in 7.0 mi NNE 9.2 mph - 0.03 in Rain Light Rain
12:55 PM 44.6 °F 40.2 °F 43.0 °F 94% 30.01 in 7.0 mi NNE 8.1 mph - 0.04 in Rain Light Rain
1:15 PM 45.3 °F 39.0 °F 43.2 °F 92% 30.02 in 7.0 mi North 13.8 mph 17.3 mph N/A   Light Drizzle
1:35 PM 45.1 °F 39.9 °F 42.8 °F 91% 30.02 in 10.0 mi North 10.4 mph - N/A   Light Drizzle
1:55 PM 44.8 °F 41.6 °F 42.8 °F 93% 30.02 in 10.0 mi NNE 5.8 mph - N/A   Overcast
2:15 PM 44.8 °F 40.4 °F 42.6 °F 92% 30.01 in 7.0 mi NNE 8.1 mph - N/A   Overcast
2:35 PM 44.6 °F 41.4 °F 42.3 °F 91% 30.01 in 7.0 mi NNE 5.8 mph - N/A   Overcast
2:55 PM 45.1 °F 42.0 °F 42.8 °F 91% 30.00 in 10.0 mi NE 5.8 mph - N/A   Overcast
3:15 PM 45.0 °F 41.2 °F 42.3 °F 90% 30.00 in 10.0 mi NNE 6.9 mph - N/A   Overcast
3:35 PM 45.0 °F 40.6 °F 42.1 °F 90% 30.00 in 10.0 mi NNE 8.1 mph - N/A   Overcast
3:55 PM 45.0 °F 40.6 °F 41.9 °F 89% 30.00 in 10.0 mi NNE 8.1 mph - N/A   Overcast
4:15 PM 45.1 °F 41.4 °F 41.9 °F 88% 30.00 in 10.0 mi North 6.9 mph - N/A   Overcast
4:35 PM 45.1 °F 41.4 °F 41.4 °F 87% 30.00 in 10.0 mi NNE 6.9 mph - N/A   Overcast
4:55 PM 45.5 °F 43.2 °F 41.5 °F 86% 30.00 in 10.0 mi NE 4.6 mph - N/A   Overcast
5:15 PM 46.9 °F - 41.5 °F 81% 29.99 in 10.0 mi North 5.8 mph - N/A   Mostly Cloudy
5:35 PM 47.5 °F - 41.7 °F 80% 29.99 in 10.0 mi NE 5.8 mph - N/A   Scattered Clouds
5:55 PM 48.0 °F - 41.5 °F 78% 30.00 in 10.0 mi NE 4.6 mph - N/A   Scattered Clouds
6:15 PM 47.8 °F - 41.2 °F 78% 30.01 in 10.0 mi NNE 3.5 mph - N/A   Scattered Clouds
6:35 PM 47.7 °F - 41.0 °F 78% 30.01 in 10.0 mi NNE 4.6 mph - N/A   Clear
6:55 PM 47.5 °F - 40.6 °F 77% 30.01 in 10.0 mi Calm Calm - N/A   Clear
7:15 PM 47.3 °F - 40.1 °F 76% 30.02 in 10.0 mi Calm Calm - N/A   Clear
7:35 PM 45.5 °F - 39.9 °F 81% 30.03 in 10.0 mi Calm Calm - N/A   Scattered Clouds
7:55 PM 44.4 °F - 40.1 °F 85% 30.04 in 10.0 mi Calm Calm - N/A   Scattered Clouds
8:15 PM 41.7 °F 39.8 °F 39.2 °F 91% 30.04 in 10.0 mi West 3.5 mph - N/A   Clear
8:35 PM 43.2 °F - 39.6 °F 87% 30.06 in 10.0 mi Calm Calm - N/A   Clear
8:55 PM 41.0 °F - 38.8 °F 92% 30.07 in 7.0 mi Calm Calm - N/A   Clear
9:15 PM 43.5 °F 41.9 °F 39.9 °F 87% 30.08 in 10.0 mi North 3.5 mph - N/A   Clear
9:35 PM 44.2 °F 41.8 °F 38.5 °F 80% 30.08 in 10.0 mi NNE 4.6 mph - N/A   Clear
9:55 PM 43.7 °F 42.1 °F 37.6 °F 79% 30.09 in 10.0 mi North 3.5 mph - N/A   Clear
10:15 PM 43.2 °F 39.7 °F 34.0 °F 70% 30.10 in 10.0 mi North 5.8 mph - N/A   Clear
10:35 PM 42.4 °F 39.6 °F 31.1 °F 64% 30.10 in 10.0 mi NNW 4.6 mph - N/A   Clear
10:55 PM 42.1 °F 39.2 °F 29.3 °F 61% 30.11 in 10.0 mi North 4.6 mph - N/A   Clear
11:15 PM 41.9 °F 38.2 °F 27.7 °F 57% 30.12 in 10.0 mi NNW 5.8 mph - N/A   Clear
11:35 PM 41.4 °F 36.8 °F 27.5 °F 58% 30.13 in 10.0 mi North 6.9 mph - N/A   Clear
11:55 PM 41.0 °F 39.0 °F 26.4 °F 56% 30.13 in 10.0 mi North 3.5 mph - N/A   Clear